Location: DARK SKY Beskydy - Park tmavé oblohy, www.darkskybeskydy.cz
(49.4926°N, 18.5016°E)
Time: 01:48:27
(UTC+02:00)

TIGRISAT - Pass Details

Date: 10 August 2024
Orbit: 591 x 668 km, 97.7° (Epoch: 14 September)

Event Time Altitude Azimuth Distance (km) Brightness Sun altitude
Rises 03:28:57 0° 136° (SE) 2,927 ? -16.3°
Reaches altitude 10° 03:31:22 10° 126° (SE) 2,010 ? -16.1°
Maximum altitude 03:35:08 29° 66° (ENE) 1,140 ? -15.7°
Drops below altitude 10° 03:38:52 10° 6° (N) 1,981 ? -15.3°
Sets 03:41:14 0° 355° (N) 2,879 ? -15.0°
